This is the latest recevied weather packets stored in our database for station/object KI4HRG. If no packets are shown the sender has not sent any weather packets the latest 10 day(s).
| Time | Temp. | Humidity | Pressure | Rain* | Wind** | Luminosity | Snow |
|---|---|---|---|---|---|---|---|
| 1777142609 | 21.67° C | 85% | 1009.9 hPa | 0 mm | - | 242 W/m² | - |
| 1777142307 | 22.78° C | 84% | 1009.9 hPa | 0 mm | - | 233 W/m² | - |
| 1777142006 | 22.78° C | 83% | 1009.9 hPa | 0 mm | - | 298 W/m² | - |
| 1777141702 | 22.78° C | 84% | 1009.9 hPa | 0 mm | - | 281 W/m² | - |
| 1777141401 | 22.22° C | 84% | 1009.9 hPa | 0 mm | - | 295 W/m² | - |
| 1777141097 | 21.67° C | 85% | 1010 hPa | 0 mm | - | 293 W/m² | - |
| 1777140794 | 21.67° C | 86% | 1010 hPa | 0 mm | - | 275 W/m² | - |
| 1777140490 | 21.67° C | 87% | 1010 hPa | 0 mm | - | 277 W/m² | - |
| 1777140189 | 21.67° C | 87% | 1009.9 hPa | 0 mm | - | 301 W/m² | - |
| 1777139885 | 21.67° C | 87% | 1009.9 hPa | 0 mm | - | 280 W/m² | - |
| 1777139583 | 21.67° C | 87% | 1009.8 hPa | 0 mm | - | 281 W/m² | - |
| 1777139282 | 21.67° C | 89% | 1010 hPa | 0 mm | - | 285 W/m² | - |
| 1777138980 | 21.11° C | 90% | 1010 hPa | 0 mm | - | 264 W/m² | - |
| 1777138676 | 21.11° C | 90% | 1010.4 hPa | 0 mm | - | 215 W/m² | - |
| 1777138371 | 21.11° C | 91% | 1010.2 hPa | 0 mm | - | 182 W/m² | - |
| 1777138068 | 21.11° C | 91% | 1010.2 hPa | 0 mm | - | 176 W/m² | - |
| 1777137764 | 21.11° C | 91% | 1010.2 hPa | 0 mm | - | 182 W/m² | - |
| 1777137460 | 20.56° C | 91% | 1010.2 hPa | 0 mm | - | 190 W/m² | - |
| 1777137157 | 20.56° C | 92% | 1010.2 hPa | 0 mm | - | 193 W/m² | - |
| 1777136854 | 20.56° C | 92% | 1010.3 hPa | 0 mm | - | 224 W/m² | - |
| 1777136551 | 20.56° C | 92% | 1010.2 hPa | 0 mm | - | 229 W/m² | - |
| 1777136249 | 20.56° C | 92% | 1010.3 hPa | 0 mm | - | 188 W/m² | - |
| 1777135946 | 20.56° C | 93% | 1010.4 hPa | 0 mm | - | 181 W/m² | - |
| 1777135641 | 20.56° C | 92% | 1010.5 hPa | 0 mm | - | 192 W/m² | - |
| 1777135337 | 20.56° C | 93% | 1010.3 hPa | 0 mm | - | 212 W/m² | - |
* Rain latest hour (hover to see other rain measurements)
** Current wind speed in m/s (hover to see current wind gust speed)